{"data":{"norad_id":62518,"epoch":"2026-09-21T11:57:22.056480Z","epoch_age_seconds":88247,"freshness":"FRESH","line1":"1 62518U 25004H   26264.49817195  .00098419  00000+0  76091-3 0  9993","line2":"2 62518  43.0016 330.5027 0001926 253.4375 106.6282 15.70856309 98001","mean_motion":15.70856309,"eccentricity":0.0001926,"inclination_deg":43.0016,"raan_deg":330.5027,"arg_perigee_deg":253.4375,"mean_anomaly_deg":106.6282,"bstar":0.00076091,"rev_number":9800,"period_min":91.669746733022,"perigee_km":355.15136664034,"apogee_km":357.74552895483,"semimajor_km":6734.5854477976,"source":"CELESTRAK","updated_at":"2026-09-22T09:00:49.622818Z"}}